Location: Albany
(35.0000°S, 118.0000°E)
Time: 20:35:55
(UTC-05:00)

ADEOS Rocket - Visible Passes

Search period start: 21 January 2017 00:00
Search period end: 31 January 2017 00:00
Orbit: 859 x 1306 km, 98.7° (Epoch: 21 January)

Date Brightness Start Highest point End Pass type
(mag) Time Alt. Az. Time Alt. Az. Time Alt. Az.
21 Jan 4.9 12:20:29 17° ENE 12:23:49 25° ESE 12:28:47 10° SSE visible
21 Jan 3.4 14:07:27 41° NW 14:09:02 48° W 14:15:07 10° SSW visible
22 Jan 3.3 13:18:04 46° NE 13:20:07 72° ESE 13:26:18 10° S visible
22 Jan 4.6 15:05:02 15° WNW 15:05:53 16° W 15:09:33 10° WSW visible
23 Jan 4.6 12:28:39 22° ENE 12:31:24 29° ESE 12:36:35 10° S visible
23 Jan 3.6 14:15:37 38° WNW 14:16:42 40° W 14:22:32 10° SSW visible
24 Jan 5.6 11:41:20 10° ESE 11:43:00 11° ESE 11:44:38 10° SE visible
24 Jan 3.1 13:26:14 56° NNE 13:27:45 83° ESE 13:33:54 10° S visible
24 Jan 4.8 15:13:11 12° W 15:13:37 12° W 15:16:08 10° WSW visible
25 Jan 4.4 12:36:49 27° ENE 12:38:58 34° ESE 12:44:20 10° S visible
25 Jan 3.7 14:23:47 33° WNW 14:24:22 34° W 14:29:54 10° SW visible
26 Jan 5.5 11:47:46 10° E 11:50:30 13° ESE 11:53:09 10° SE visible
26 Jan 2.9 13:34:23 66° N 13:35:22 85° WNW 13:41:27 10° SSW visible
27 Jan 4.1 12:44:58 34° ENE 12:46:33 39° ESE 12:52:03 10° S visible
27 Jan 3.9 14:31:57 28° W 14:32:02 28° W 14:37:12 10° SW visible
28 Jan 5.3 11:55:34 12° E 11:58:01 15° ESE 12:01:18 10° SSE visible
28 Jan 2.9 13:42:32 69° NW 13:43:00 73° WNW 13:48:59 10° SSW visible
29 Jan 3.8 12:53:06 42° E 12:54:09 45° ESE 12:59:44 10° S visible
29 Jan 4.2 14:40:04 23° W 14:40:04 23° W 14:44:26 10° SW visible
30 Jan 5.1 12:03:42 16° E 12:05:32 18° ESE 12:09:19 10° SSE visible
30 Jan 3.0 13:50:40 61° W 13:50:40 61° W 13:56:28 10° SSW visible
